Regional Weather Roundup
Issued by NWS Goodland, KS

Home | Current Version | Previous Version | Graphics & Text | Print | Product List | Glossary On
Versions: 1 2 3 4 5 6 7 8 9 10 11 12 13 14 15 16 17 18 19 20 21 22 23 24 25 26 27 28 29 30 31 32 33 34 35 36 37 38 39 40 41 42 43 44 45 46 47 48 49 50
000
ASUS43 KGLD 240808
RWRGLD

GOODLAND FORECAST AREA HOURLY WEATHER ROUNDUP
NATIONAL WEATHER SERVICE GOODLAND KS
200 AM MDT FRI MAR 24 2017

...OFFICIAL OBSERVATIONS...

CITY           SKY/WX    TMP DP  RH WIND       PRES   REMARKS
GOODLAND KS    CLOUDY    54  50  86 N14       29.61R
HILL CITY KS   CLOUDY    57  55  93 NE14      29.64F
IMPERIAL NEB   HVY RAIN  48  46  93 NE18      29.76R FOG
MCCOOK NEB     NOT AVBL
AKRON CO       RAIN      42  39  89 N25G35    29.77R FOG
BURLINGTON CO  CLOUDY    52  48  86 NE29G35   29.59S
LIMON CO       LGT RAIN  41  41 100 N35G44    29.67S
$$

...UNOFFICIAL OBSERVATIONS...

CITY           SKY/WX    TMP DP  RH WIND       PRES   REMARKS
LENORA KS        N/A     56  32  40 E6          N/A
NORTON KS      CLOUDY    55  50  82 N13       29.65F
SHARON SPRINGS   N/A     54  48  81 NE12G20     N/A
TRENTON NEB      N/A     51  32  48 N13G20      N/A
YUMA CO        RAIN      43  43 100 N21G31    29.74R
$$



USA.gov is the U.S. government's official web portal to all federal, state and local government web resources and services.